Total_Precipitation_Accumulation
0.19 0.22 0.24 0.23 0.26 0.23 0.21 0.26 0.27 0.26 0.19 0.18 0.15 0.12 0.14 0.11 0.21 0.19 0.30 0.20 0.15 0.15 0.08 0.17 0.15 0.04 0.00 0.02 0.01 0.00 0.00 0.00 0.02 0.05 0.04 0.02 0.01 0.00 0.00 0.00 0.00 0.00 0.00 0.00 0.00 0.00 0.00 0.00 0.00 0.00 0.00 0.00 0.00 0.00
0.22 0.19 0.20 0.20 0.19 0.16 0.17 0.23 0.23 0.22 0.19 0.17 0.15 0.15 0.15 0.12 0.22 0.21 0.25 0.30 0.14 0.12 0.13 0.10 0.14 0.08 0.00 0.00 0.00 0.00 0.00 0.00 0.01 0.03 0.02 0.03 0.00 0.00 0.00 0.00 0.00 0.01 0.00 0.00 0.00 0.00 0.00 0.00 0.00 0.00 0.00 0.00 0.00 0.00
0.21 0.23 0.23 0.23 0.21 0.21 0.23 0.24 0.24 0.23 0.19 0.19 0.22 0.25 0.16 0.16 0.29 0.24 0.18 0.21 0.25 0.18 0.05 0.09 0.14 0.16 0.05 0.00 0.00 0.00 0.00 0.00 0.03 0.03 0.06 0.04 0.02 0.01 0.00 0.00 0.00 0.00 0.01 0.00 0.00 0.00 0.00 0.00 0.00 0.00 0.00 0.00 0.00 0.00
0.12 0.18 0.18 0.16 0.19 0.19 0.19 0.21 0.21 0.22 0.25 0.29 0.37 0.29 0.19 0.21 0.35 0.18 0.16 0.20 0.23 0.20 0.11 0.08 0.08 0.12 0.08 0.03 0.00 0.00 0.00 0.01 0.04 0.08 0.12 0.06 0.06 0.03 0.01 0.00 0.00 0.00 0.01 0.00 0.00 0.00 0.00 0.00 0.00 0.00 0.00 0.00 0.00 0.00
0.02 0.03 0.04 0.05 0.07 0.09 0.10 0.11 0.15 0.22 0.30 0.31 0.48 0.24 0.17 0.26 0.32 0.10 0.12 0.24 0.10 0.20 0.14 0.07 0.05 0.11 0.16 0.10 0.06 0.02 0.00 0.01 0.04 0.05 0.06 0.03 0.02 0.03 0.02 0.01 0.00 0.00 0.00 0.00 0.00 0.01 0.00 0.00 0.00 0.00 0.00 0.00 0.00 0.00
0.01 0.02 0.03 0.04 0.04 0.05 0.06 0.08 0.13 0.19 0.19 0.32 0.33 0.20 0.19 0.23 0.17 0.12 0.25 0.29 0.13 0.13 0.12 0.07 0.03 0.05 0.15 0.21 0.17 0.12 0.04 0.01 0.04 0.03 0.02 0.01 0.00 0.02 0.01 0.00 0.00 0.00 0.00 0.00 0.00 0.00 0.00 0.00 0.00 0.00 0.00 0.00 0.00 0.00
0.01 0.01 0.02 0.03 0.05 0.06 0.05 0.06 0.10 0.14 0.23 0.32 0.13 0.20 0.11 0.11 0.11 0.19 0.17 0.14 0.09 0.13 0.14 0.07 0.05 0.11 0.16 0.25 0.25 0.15 0.13 0.09 0.06 0.04 0.01 0.00 0.00 0.01 0.00 0.00 0.00 0.00 0.00 0.00 0.00 0.00 0.00 0.00 0.00 0.00 0.00 0.00 0.00 0.00
0.02 0.01 0.01 0.02 0.03 0.01 0.01 0.04 0.09 0.19 0.24 0.10 0.11 0.11 0.07 0.07 0.20 0.18 0.07 0.05 0.04 0.12 0.16 0.09 0.07 0.30 0.49 0.45 0.24 0.23 0.30 0.23 0.15 0.13 0.05 0.01 0.01 0.00 0.00 0.00 0.00 0.00 0.00 0.00 0.00 0.00 0.00 0.00 0.00 0.00 0.00 0.00 0.00 0.00
0.03 0.02 0.01 0.01 0.01 0.01 0.02 0.03 0.07 0.08 0.04 0.08 0.13 0.11 0.21 0.17 0.39 0.12 0.20 0.31 0.26 0.28 0.30 0.10 0.11 0.39 0.56 0.68 0.31 0.25 0.47 0.60 0.27 0.12 0.11 0.08 0.04 0.01 0.00 0.00 0.00 0.00 0.00 0.00 0.00 0.00 0.00 0.00 0.00 0.00 0.00 0.00 0.00 0.00
0.06 0.05 0.03 0.03 0.02 0.02 0.03 0.03 0.02 0.01 0.03 0.09 0.22 0.33 0.28 0.18 0.29 0.43 0.71 0.77 0.47 0.37 0.28 0.17 0.15 0.27 0.51 0.33 0.46 0.33 0.24 0.60 0.74 0.32 0.16 0.15 0.08 0.01 0.00 0.00 0.00 0.00 0.00 0.00 0.00 0.00 0.00 0.00 0.00 0.00 0.00 0.00 0.00 0.00
0.06 0.06 0.05 0.06 0.07 0.07 0.08 0.07 0.09 0.12 0.16 0.28 0.33 0.36 0.23 0.33 0.70 0.75 0.70 0.51 0.28 0.14 0.07 0.13 0.14 0.22 0.24 0.14 0.24 0.31 0.35 0.29 0.30 0.41 0.28 0.22 0.11 0.02 0.00 0.00 0.01 0.01 0.00 0.00 0.00 0.00 0.00 0.00 0.00 0.00 0.00 0.00 0.00 0.00
0.06 0.05 0.03 0.03 0.03 0.04 0.07 0.09 0.10 0.14 0.23 0.46 0.59 0.47 0.49 0.55 0.54 0.56 0.34 0.24 0.11 0.03 0.03 0.11 0.07 0.07 0.26 0.25 0.21 0.30 0.25 0.26 0.20 0.10 0.12 0.09 0.04 0.03 0.06 0.06 0.06 0.06 0.06 0.04 0.02 0.01 0.01 0.01 0.01 0.01 0.02 0.03 0.04 0.06
0.09 0.08 0.07 0.05 0.02 0.02 0.05 0.16 0.27 0.43 0.86 0.82 0.49 0.38 0.46 0.45 0.42 0.35 0.10 0.07 0.05 0.02 0.02 0.05 0.08 0.04 0.06 0.24 0.32 0.22 0.24 0.17 0.12 0.14 0.12 0.03 0.01 0.01 0.04 0.08 0.12 0.15 0.16 0.17 0.17 0.17 0.16 0.16 0.15 0.14 0.19 0.27 0.33 0.37
0.12 0.08 0.09 0.12 0.14 0.15 0.22 0.29 0.40 0.91 0.98 0.49 0.38 0.36 0.38 0.33 0.31 0.21 0.06 0.03 0.03 0.02 0.02 0.02 0.05 0.05 0.03 0.08 0.20 0.24 0.16 0.13 0.10 0.08 0.05 0.03 0.05 0.04 0.02 0.02 0.02 0.04 0.07 0.15 0.26 0.29 0.28 0.31 0.40 0.45 0.42 0.37 0.29 0.22
0.14 0.14 0.17 0.25 0.24 0.27 0.34 0.46 0.61 0.69 0.65 0.60 0.57 0.37 0.25 0.26 0.25 0.18 0.09 0.08 0.09 0.05 0.03 0.03 0.08 0.09 0.09 0.12 0.13 0.09 0.09 0.09 0.06 0.03 0.03 0.02 0.02 0.02 0.02 0.02 0.05 0.09 0.15 0.21 0.25 0.26 0.27 0.25 0.23 0.25 0.22 0.17 0.10 0.07
0.22 0.18 0.18 0.24 0.27 0.34 0.46 0.52 0.48 0.46 0.44 0.35 0.28 0.26 0.24 0.25 0.24 0.18 0.15 0.16 0.16 0.14 0.12 0.14 0.20 0.27 0.25 0.12 0.07 0.07 0.04 0.05 0.06 0.06 0.06 0.04 0.06 0.09 0.10 0.12 0.19 0.26 0.29 0.25 0.22 0.17 0.15 0.13 0.07 0.05 0.05 0.02 0.02 0.02
0.27 0.19 0.14 0.16 0.21 0.23 0.28 0.30 0.24 0.16 0.14 0.15 0.23 0.31 0.30 0.27 0.23 0.23 0.24 0.23 0.19 0.18 0.19 0.16 0.13 0.20 0.22 0.14 0.10 0.10 0.12 0.14 0.14 0.11 0.10 0.10 0.12 0.16 0.21 0.27 0.31 0.31 0.25 0.15 0.10 0.09 0.07 0.04 0.01 0.01 0.01 0.01 0.01 0.01
0.46 0.34 0.28 0.29 0.22 0.23 0.31 0.34 0.14 0.02 0.07 0.18 0.20 0.28 0.25 0.30 0.27 0.21 0.24 0.24 0.16 0.14 0.13 0.15 0.12 0.09 0.10 0.10 0.13 0.21 0.27 0.31 0.29 0.28 0.27 0.28 0.28 0.32 0.33 0.32 0.33 0.25 0.13 0.12 0.10 0.12 0.10 0.08 0.06 0.06 0.04 0.02 0.00 0.00
0.19 0.21 0.24 0.22 0.16 0.16 0.16 0.08 0.04 0.07 0.18 0.18 0.19 0.16 0.12 0.16 0.22 0.25 0.22 0.20 0.14 0.06 0.06 0.11 0.10 0.11 0.15 0.19 0.25 0.27 0.33 0.33 0.36 0.42 0.43 0.44 0.40 0.34 0.37 0.33 0.26 0.19 0.16 0.17 0.14 0.11 0.10 0.07 0.07 0.05 0.04 0.02 0.01 0.00
0.07 0.09 0.10 0.08 0.04 0.00 0.00 0.01 0.00 0.03 0.13 0.18 0.18 0.08 0.05 0.13 0.10 0.04 0.03 0.02 0.02 0.01 0.05 0.11 0.22 0.27 0.31 0.34 0.40 0.42 0.43 0.41 0.34 0.24 0.29 0.36 0.41 0.30 0.30 0.22 0.20 0.18 0.14 0.14 0.13 0.12 0.08 0.07 0.06 0.04 0.03 0.02 0.01 0.01
0.03 0.05 0.03 0.00 0.00 0.00 0.00 0.00 0.02 0.04 0.06 0.10 0.11 0.03 0.08 0.03 0.00 0.00 0.00 0.00 0.01 0.09 0.22 0.31 0.33 0.35 0.41 0.42 0.38 0.36 0.37 0.32 0.29 0.19 0.21 0.23 0.32 0.21 0.21 0.22 0.17 0.14 0.11 0.12 0.10 0.11 0.08 0.08 0.08 0.05 0.03 0.03 0.02 0.02
0.00 0.00 0.00 0.00 0.00 0.00 0.01 0.00 0.02 0.04 0.02 0.06 0.05 0.03 0.04 0.02 0.00 0.00 0.00 0.01 0.10 0.23 0.33 0.33 0.33 0.35 0.32 0.33 0.37 0.33 0.39 0.28 0.23 0.19 0.20 0.16 0.16 0.15 0.16 0.19 0.12 0.11 0.10 0.11 0.09 0.09 0.08 0.06 0.05 0.03 0.02 0.02 0.02 0.01
0.00 0.00 0.00 0.00 0.00 0.00 0.00 0.00 0.00 0.00 0.00 0.01 0.00 0.00 0.01 0.01 0.01 0.00 0.01 0.04 0.13 0.24 0.29 0.24 0.28 0.28 0.28 0.35 0.24 0.22 0.28 0.20 0.16 0.16 0.16 0.13 0.11 0.12 0.09 0.09 0.08 0.06 0.06 0.08 0.07 0.06 0.05 0.04 0.02 0.01 0.00 0.00 0.00 0.00
0.00 0.00 0.00 0.00 0.00 0.00 0.00 0.00 0.00 0.00 0.00 0.00 0.00 0.02 0.05 0.02 0.00 0.00 0.01 0.04 0.13 0.12 0.09 0.14 0.15 0.15 0.15 0.11 0.12 0.15 0.20 0.13 0.10 0.10 0.11 0.04 0.03 0.05 0.03 0.04 0.04 0.04 0.04 0.04 0.02 0.01 0.01 0.00 0.00 0.00 0.00 0.00 0.00 0.00
0.00 0.00 0.00 0.00 0.00 0.00 0.00 0.00 0.00 0.00 0.00 0.00 0.00 0.03 0.02 0.00 0.00 0.01 0.02 0.05 0.06 0.06 0.08 0.08 0.06 0.07 0.08 0.10 0.10 0.10 0.07 0.03 0.02 0.02 0.04 0.02 0.01 0.01 0.01 0.01 0.01 0.01 0.00 0.00 0.00 0.00 0.00 0.00 0.00 0.00 0.00 0.00 0.00 0.00
0.00 0.01 0.01 0.01 0.00 0.00 0.01 0.00 0.01 0.01 0.01 0.01 0.02 0.03 0.00 0.00 0.00 0.02 0.03 0.05 0.05 0.06 0.06 0.05 0.04 0.02 0.01 0.01 0.01 0.01 0.02 0.00 0.00 0.00 0.02 0.01 0.01 0.01 0.01 0.00 0.00 0.00 0.00 0.00 0.00 0.00 0.00 0.00 0.00 0.00 0.00 0.00 0.00 0.00
0.00 0.00 0.00 0.01 0.01 0.00 0.00 0.00 0.00 0.00 0.01 0.02 0.01 0.01 0.00 0.00 0.01 0.05 0.05 0.04 0.03 0.04 0.03 0.02 0.01 0.00 0.01 0.01 0.01 0.00 0.00 0.00 0.00 0.00 0.00 0.00 0.00 0.00 0.00 0.00 0.01 0.01 0.01 0.00 0.00 0.00 0.00 0.00 0.00 0.00 0.00 0.00 0.00 0.01
0.01 0.00 0.00 0.00 0.00 0.00 0.00 0.00 0.00 0.01 0.02 0.02 0.01 0.00 0.01 0.01 0.03 0.06 0.07 0.07 0.03 0.01 0.00 0.00 0.00 0.00 0.00 0.01 0.01 0.01 0.00 0.00 0.00 0.00 0.00 0.00 0.00 0.00 0.00 0.00 0.01 0.00 0.00 0.00 0.00 0.01 0.01 0.01 0.01 0.01 0.01 0.00 0.00 0.00
0.00 0.00 0.00 0.00 0.00 0.00 0.01 0.01 0.01 0.01 0.02 0.01 0.00 0.01 0.02 0.03 0.06 0.06 0.07 0.06 0.03 0.01 0.01 0.00 0.01 0.00 0.00 0.00 0.00 0.00 0.00 0.00 0.00 0.00 0.00 0.00 0.00 0.00 0.00 0.00 0.00 0.00 0.00 0.00 0.00 0.00 0.01 0.01 0.01 0.00 0.00 0.00 0.01 0.01
0.00 0.00 0.00 0.00 0.01 0.01 0.02 0.01 0.00 0.00 0.00 0.00 0.00 0.01 0.01 0.05 0.09 0.06 0.03 0.01 0.01 0.00 0.01 0.00 0.00 0.00 0.00 0.00 0.00 0.00 0.00 0.00 0.00 0.00 0.00 0.00 0.00 0.00 0.00 0.00 0.00 0.00 0.00 0.00 0.00 0.00 0.00 0.00 0.00 0.00 0.00 0.00 0.00 0.00
0.00 0.00 0.00 0.00 0.02 0.02 0.01 0.00 0.00 0.00 0.00 0.00 0.00 0.00 0.01 0.03 0.03 0.02 0.01 0.01 0.01 0.00 0.00 0.00 0.00 0.00 0.00 0.00 0.00 0.00 0.00 0.00 0.00 0.00 0.00 0.00 0.00 0.00 0.00 0.00 0.00 0.00 0.00 0.00 0.00 0.00 0.00 0.00 0.00 0.00 0.00 0.00 0.00 0.01
0.00 0.00 0.00 0.00 0.02 0.03 0.03 0.03 0.01 0.00 0.00 0.00 0.01 0.00 0.01 0.00 0.01 0.01 0.01 0.00 0.00 0.00 0.00 0.00 0.00 0.01 0.00 0.00 0.00 0.00 0.00 0.00 0.00 0.00 0.00 0.00 0.00 0.00 0.00 0.00 0.00 0.00 0.00 0.00 0.00 0.00 0.00 0.00 0.00 0.00 0.00 0.00 0.01 0.00
0.00 0.00 0.00 0.00 0.02 0.03 0.03 0.05 0.02 0.01 0.01 0.01 0.01 0.01 0.01 0.00 0.00 0.01 0.01 0.00 0.00 0.00 0.00 0.00 0.01 0.00 0.00 0.00 0.00 0.00 0.00 0.00 0.00 0.00 0.00 0.00 0.00 0.00 0.00 0.00 0.00 0.00 0.00 0.00 0.00 0.00 0.00 0.00 0.00 0.00 0.00 0.00 0.00 0.00